Find Starlink 11416

NORAD ID: 62594 Int'l Des: 2025-008 Owner: SPXS Country: US Constellation: starlink operational
LEOCIRCULAR

Live-Position

3D-Globus wird geladen...

Über Starlink 11416

Beschreibung wird geladen...

Nächste Überflüge

Passes for default location (London). Set your location on the main map for personalized predictions.

Höhenverlauf

Loading altitude history...

Zweizeiliger Elementsatz

1 62594U 25008H 26125.48365580 .00234535 00000-0 12942-2 0 9998
2 62594 42.9928 142.2421 0004728 92.5634 267.5778 15.78183466 76068
Epoch: 5. Mai 2026 • Age: 10 hours

Aktueller Status

Höhe 332.9 km
Geschwindigkeit 7.71 km/s
Subsatellitenpunkt 11.06°N, 122.8°E
Startdatum 13. Jan. 2025
Alter 1.3 years
Typ internet

Technische Details

Klassifizierung Payload
Masse 960.00 kg
Trockenmasse 910.00 kg
Gesamtmasse 960.00 kg
Länge 0.30 m
Durchmesser 4.10 m
Spannweite 29.00 m
Form Box + pan
Hersteller SPXS
Bus-Typ Starlink V2MD
Phasenstatus In Orbit
Besitzer/Staat SPXS/US

Most Searched